[[{"header":{"parameterUnit":"m.s-1","parameterCategory":1,"la1":30.2991,"la2":30.254,"lo1":-89.0895,"lo2":-89.0444,"dy":0.0017,"dx":0.0017,"nx":28,"ny":28,"refTime":"2023-10-26T03:00:00:Z","depth":0,"parameterNumber":2,"parameterNumberName":"U-component_of_WINDS"},"data":[0,0,0,0,0,0,0,0,0,0,0,0,0,0,0,0,0,0,0,0,0,0,0,0,0,0,0,0,0,0,0,0,0,0,0,0,0,0,0,0,0,0,0,0,0,0,0,0,0,0,0,0,0,0,0,0,0,0,-3.8944,-3.8945,0,-3.8982,-3.8983,-3.8983,-3.8946,-3.8944,-3.8943,-3.8942,-3.898,-3.8982,-3.8984,0,0,0,0,0,0,0,0,0,0,0,0,0,-3.8843,-3.8845,-3.8944,-3.8945,-3.8945,-3.8982,-3.8983,-3.8983,-3.8946,-3.8944,-3.8943,-3.8941,-3.8979,-3.8982,-3.8985,0,0,0,0,0,0,0,0,0,0,0,0,0,-3.8885,-3.8846,-3.8944,-3.8931,-3.893,-3.8982,-3.8983,-3.8983,-3.8947,-3.8944,-3.8942,-3.894,-3.8978,-3.8981,-3.8985,-3.9051,0,0,-3.8996,-3.8997,0,0,0,0,0,0,0,0,-3.8882,-3.8888,-3.8933,-3.8932,-3.8931,-3.8957,-3.8961,-3.9006,-3.8947,-3.894,-3.8942,-3.8939,-3.8974,-3.8978,-3.899,-3.9053,-3.9054,-3.8996,-3.8998,-3.9,-3.9001,0,0,0,0,0,0,0,-3.888,-3.8887,-3.8959,-3.8933,-3.8933,-3.8925,-3.8928,-3.8969,-3.8969,-3.8941,-3.8938,-3.8943,-3.8973,-3.8986,-3.899,-3.9055,-3.8996,-3.8999,-3.9001,-3.9003,-3.918,-3.9182,0,0,0,0,0,0,-3.8878,-3.8884,-3.8958,-3.896,-3.8901,-3.8928,-3.8932,-3.8951,-3.8968,-3.8969,-3.8945,-3.8941,-3.8981,-3.8986,-3.8991,-3.9072,-3.9,-3.9003,-3.9005,-3.9177,-3.918,-3.9183,0,0,0,0,0,0,-3.8876,-3.8885,-3.8956,-3.8922,-3.893,-3.8932,-3.8954,-3.8953,-3.8966,-3.8972,-3.8972,-3.8958,-3.898,-3.8986,-3.9038,-3.9073,-3.9005,-3.9008,-3.9174,-3.9178,-3.9181,-3.9232,0,0,0,0,0,0,-3.8873,-3.8884,-3.8908,-3.8923,-3.8932,-3.9001,-3.8956,-3.8955,-3.8972,-3.8968,-3.8984,-3.8985,-3.8978,-3.9033,-3.9041,-3.9076,-3.9011,-3.9171,-3.9176,-3.918,-3.9227,-3.9237,-3.9246,0,0,0,0,0,-3.887,-3.8919,-3.8909,-3.8918,-3.8962,-3.9003,-3.9008,-3.9,-3.8975,-3.9,-3.9005,-3.8984,-3.9068,-3.9038,-3.9047,-3.9084,-3.9168,-3.9174,-3.918,-3.9223,-3.9235,-3.9246,0,0,0,0,0,0,-3.8906,-3.892,-3.8909,-3.8965,-3.8983,-3.8996,-3.9026,-3.9013,-3.9038,-3.9032,-3.9022,-3.9026,-3.9081,-3.9088,-3.9054,-3.9152,-3.9114,-3.9122,-3.9144,-3.9156,-3.9165,-3.9161,-3.9014,0,0,0,0,0,-3.8921,-3.8953,-3.8964,-3.9012,-3.9022,-3.9024,-3.9041,-3.9034,-3.9052,-3.9059,-3.9067,-3.9086,-3.9117,-3.9137,-3.9166,-3.923,-3.9234,-3.9261,-3.927,-3.9277,-3.9283,-3.9321,-3.9334,-3.9202,-3.9202,-3.9202,0,0,-3.8951,-3.8963,-3.8983,-3.902,-3.9033,-3.9067,-3.9029,-3.9066,-3.9092,-3.9064,-3.9113,-3.9121,-3.9142,-3.9201,-3.9227,-3.9208,-3.9322,-3.9285,-3.9291,-3.9292,-3.9329,-3.9341,-3.9352,-3.9206,-3.9205,-3.9204,0,0,-3.9023,-3.9035,-3.9078,-3.9094,-3.9115,-3.9117,-3.9128,-3.9145,-3.9149,-3.9199,-3.9181,-3.9213,-3.9265,-3.9282,-3.9297,-3.9385,-3.9367,-3.9395,-3.9441,-3.9479,-3.9489,-3.9498,-3.953,-3.9542,-3.9401,-3.9401,-3.9401,0,-3.9057,-3.9107,-3.9102,-3.9142,-3.916,-3.914,-3.9185,-3.92,-3.923,-3.9243,-3.9223,-3.9293,-3.9305,-3.9369,-3.9391,-3.9404,-3.9417,-3.939,-3.9488,-3.9497,-3.9506,-3.9536,-3.9548,-3.9405,-3.9404,-3.9404,-3.9404,0,-3.915,-3.9186,-3.9218,-3.925,-3.9272,-3.9314,-3.9317,-3.934,-3.9334,-3.9339,-3.9393,-3.9408,-3.9441,-3.9457,-3.9449,-3.9522,-3.951,-3.9489,-3.9451,-3.9521,-3.955,-3.9562,-3.9409,-3.9408,-3.9407,-3.9406,0,0,-3.9238,-3.9272,-3.9284,-3.93,-3.9326,-3.9354,-3.9399,-3.9433,-3.9454,-3.9478,-3.9515,-3.9564,-3.9547,-3.9564,-3.956,-3.9593,-3.9664,-3.9569,-3.9569,-3.9586,-3.9747,-3.9761,-3.9775,-3.9655,-3.9657,-3.9659,-3.9745,0,-3.9312,-3.9387,-3.9387,-3.9456,-3.9491,-3.9477,-3.9516,-3.9538,-3.9545,-3.9577,-3.9586,-3.9621,-3.9595,-3.9607,-3.9639,-3.9648,-3.9696,-3.9643,-3.969,-3.9691,-3.9683,-3.9789,-3.9803,-3.9884,-3.9757,-3.9758,-3.976,0,-3.9405,-3.9434,-3.9508,-3.9535,-3.9549,-3.9583,-3.9618,-3.9648,-3.9675,-3.9678,-3.9702,-3.9695,-3.9742,-3.9706,-3.9772,-3.9735,-3.9756,-3.9765,-3.9768,-3.9769,-3.9728,-3.9794,-3.9909,-3.9921,-3.9777,-3.9776,-3.9775,0,-3.9463,-3.9521,-3.9574,-3.9589,-3.962,-3.9646,-3.966,-3.9684,-3.9707,-3.9738,-3.9753,-3.9789,-3.9808,-3.9837,-3.9841,-3.9814,-3.9908,-3.9871,-3.9913,-3.9913,-3.993,-3.9928,-4.005,-3.9947,-3.9946,-3.9946,-3.9946,0,-3.9543,-3.9588,-3.9601,-3.9633,-3.9686,-3.9688,-3.9741,-3.9753,-3.9777,-3.9812,-3.9804,-3.9838,-3.9841,-3.9878,-3.9882,-3.9937,-3.9946,-3.9951,-3.9951,-3.9951,-3.995,-3.9961,-3.9955,-3.9949,-3.9949,-3.9948,-3.9947,0,-3.9614,-3.9624,-3.9681,-3.9709,-3.9718,-3.9755,-3.978,-3.9812,-3.9822,-3.9868,-3.9879,-3.9895,-3.9937,-3.9946,-3.9995,-3.9998,-4.0065,-4.006,-4.0056,-4.0054,-4.0096,-4.0092,-4.0227,-4.0245,-4.0131,-4.0132,-4.0133,0,-3.9662,-3.9698,-3.9732,-3.9756,-3.9773,-3.9812,-3.9836,-3.9842,-3.9868,-3.9905,-3.9933,-3.9976,-4.001,-4.008,-4.0095,-4.0135,-4.013,-4.0176,-4.0136,-4.0136,-4.0131,-4.0128,-4.0133,-4.0182,-4.0183,-4.0184,-4.0185,0,-3.9748,-3.9754,-3.9789,-3.9829,-3.9859,-3.989,-3.9919,-3.994,-3.9951,-3.9981,-4.0026,-4.0053,-4.0107,-4.015,-4.0191,-4.0207,-4.0199,-4.0199,-4.021,-4.0208,-4.0205,-4.0208,-4.0075,-4.0194,-4.0193,-4.0192,-4.0192,-4.0191,-3.9809,-3.9842,-3.9872,-3.9914,-3.9938,-3.9968,-4.0001,-4.0017,-4.0055,-4.01,-4.0102,-4.0152,-4.0183,-4.0238,-4.0258,-4.0298,-4.0284,-4.03,-4.0304,-4.0308,-4.0312,-4.0201,-4.0306,-4.0305,-4.0305,-4.0305,-4.0305,0,-3.9894,-3.9915,-3.9954,-3.9998,-4.0032,-4.0025,-4.0059,-4.0087,-4.0132,-4.0162,-4.0198,-4.0252,-4.0296,-4.0318,-4.0362,-4.0391,-4.0388,-4.0402,-4.0398,-4.0403,-4.0322,-4.0307,-4.0403,-4.0403,-4.0403,-4.0403,-4.0403,-4.0403,-3.9942,-3.9998,-4.0009,-4.0078,-4.0099,-4.0149,-4.0169,-4.0198,-4.0223,-4.0284,-4.0321,-4.0337,-4.0366,-4.0413,-4.0454,-4.046,-4.0476,-4.0492,-4.0496,-4.0418,-4.0408,-4.0399,-4.0385,-4.0496,-4.0496,-4.0573,-4.0574,-4.0575]},{"header":{"parameterUnit":"m.s-1","parameterCategory":1,"la1":30.2991,"la2":30.254,"lo1":-89.0895,"lo2":-89.0444,"dy":0.0017,"dx":0.0017,"nx":28,"ny":28,"refTime":"2023-10-26T03:00:00:Z","depth":0,"parameterNumber":3,"parameterNumberName":"V-component_of_WINDS"},"data":[0,0,0,0,0,0,0,0,0,0,0,0,0,0,0,0,0,0,0,0,0,0,0,0,0,0,0,0,0,0,0,0,0,0,0,0,0,0,0,0,0,0,0,0,0,0,0,0,0,0,0,0,0,0,0,0,0,0,1.3128,1.313,0,1.3255,1.3256,1.3257,1.3386,1.3387,1.3389,1.3391,1.3517,1.3518,1.352,0,0,0,0,0,0,0,0,0,0,0,0,0,1.2999,1.3,1.3128,1.313,1.3131,1.3254,1.3256,1.3258,1.3385,1.3387,1.339,1.3392,1.3516,1.3518,1.352,0,0,0,0,0,0,0,0,0,0,0,0,0,1.3083,1.3001,1.3128,1.321,1.3219,1.3254,1.3256,1.3258,1.3385,1.3388,1.339,1.3393,1.3515,1.3518,1.352,1.3484,0,0,1.3528,1.3529,0,0,0,0,0,0,0,0,1.3078,1.3087,1.3196,1.3204,1.3214,1.3307,1.3257,1.3334,1.3384,1.3322,1.3391,1.3394,1.3445,1.3453,1.3471,1.349,1.3495,1.3529,1.353,1.3531,1.3532,0,0,0,0,0,0,0,1.3072,1.3083,1.3178,1.3198,1.3209,1.3241,1.3256,1.3272,1.3367,1.3327,1.3337,1.335,1.345,1.3468,1.3475,1.3497,1.3528,1.3531,1.3532,1.3533,1.3498,1.3495,0,0,0,0,0,0,1.3054,1.3077,1.3174,1.3182,1.3151,1.3241,1.3258,1.3275,1.3367,1.3384,1.3348,1.3356,1.3462,1.3472,1.348,1.3446,1.3531,1.3534,1.3535,1.35,1.3497,1.3494,0,0,0,0,0,0,1.305,1.3061,1.3169,1.3132,1.3148,1.324,1.3258,1.3276,1.3294,1.3383,1.34,1.3349,1.3465,1.3476,1.3483,1.3452,1.3535,1.3537,1.3503,1.3499,1.3496,1.3376,0,0,0,0,0,0,1.3046,1.3059,1.3045,1.3131,1.315,1.317,1.3257,1.3276,1.3299,1.331,1.3388,1.3404,1.3468,1.3479,1.3486,1.3457,1.3539,1.3506,1.3501,1.3497,1.3383,1.3369,1.3356,0,0,0,0,0,1.3041,1.3005,1.3044,1.3055,1.3135,1.3168,1.3178,1.3254,1.3295,1.3283,1.3341,1.3401,1.3455,1.3478,1.3488,1.3459,1.3509,1.3503,1.3497,1.3389,1.3371,1.3357,0,0,0,0,0,0,1.2911,1.3017,1.3062,1.3053,1.31,1.3189,1.3176,1.3232,1.3268,1.3277,1.3368,1.3385,1.3382,1.3422,1.3446,1.3431,1.349,1.3486,1.3405,1.3389,1.3376,1.3366,1.3541,0,0,0,0,0,1.2882,1.2899,1.2992,1.2975,1.2997,1.3082,1.3099,1.3153,1.3206,1.3226,1.3285,1.3333,1.3362,1.3377,1.3408,1.339,1.3411,1.3376,1.3362,1.3351,1.3346,1.3343,1.3329,1.3476,1.3476,1.3476,0,0,1.282,1.2881,1.2886,1.295,1.2994,1.3011,1.3098,1.3111,1.3125,1.3228,1.3239,1.3284,1.3344,1.334,1.3341,1.3373,1.331,1.3344,1.3334,1.3335,1.3336,1.3322,1.3309,1.3472,1.3473,1.3473,0,0,1.2717,1.2764,1.2757,1.28,1.2866,1.2924,1.2922,1.3004,1.3038,1.3051,1.313,1.3149,1.3194,1.3235,1.3262,1.3181,1.3239,1.3188,1.3117,1.3114,1.3102,1.3092,1.3065,1.3054,1.3183,1.3183,1.3183,0,1.2632,1.2661,1.2745,1.2756,1.2783,1.288,1.2875,1.2912,1.2983,1.3,1.3035,1.3099,1.3146,1.3154,1.3135,1.3152,1.3155,1.3179,1.3097,1.3088,1.308,1.3056,1.3045,1.3177,1.3177,1.3178,1.3179,0,1.2555,1.2574,1.2561,1.263,1.2656,1.2658,1.2743,1.2759,1.2813,1.2868,1.2882,1.2943,1.299,1.2996,1.3047,1.3013,1.3031,1.308,1.3141,1.3058,1.3037,1.3028,1.3167,1.317,1.3172,1.3173,0,0,1.2369,1.249,1.2483,1.2518,1.26,1.2617,1.2625,1.2673,1.2686,1.2733,1.2743,1.2783,1.2831,1.2861,1.2918,1.2915,1.285,1.2966,1.2969,1.2943,1.2819,1.2781,1.2769,1.289,1.2888,1.2887,1.2815,0,1.2281,1.2302,1.238,1.2377,1.2398,1.2493,1.2501,1.2553,1.2605,1.2631,1.2689,1.2716,1.2776,1.2796,1.2797,1.2857,1.2826,1.2864,1.29,1.2901,1.2882,1.2757,1.2716,1.2645,1.2806,1.2805,1.2804,0,1.218,1.2224,1.2223,1.231,1.2322,1.2326,1.2379,1.2402,1.2464,1.2503,1.254,1.2605,1.2621,1.2679,1.2703,1.2726,1.2747,1.2779,1.2778,1.2784,1.2846,1.276,1.2623,1.2612,1.2791,1.2792,1.2793,0,1.2046,1.2106,1.2115,1.2141,1.2241,1.2243,1.2285,1.235,1.2375,1.2421,1.2439,1.2485,1.251,1.2546,1.2623,1.2658,1.2639,1.2702,1.2672,1.267,1.2662,1.2661,1.2527,1.2675,1.2675,1.2675,1.2675,0,1.1939,1.1935,1.2057,1.2061,1.2062,1.2153,1.2151,1.2202,1.226,1.2278,1.2363,1.2378,1.2479,1.2506,1.2567,1.2579,1.2589,1.2621,1.2637,1.2614,1.261,1.2627,1.2634,1.2672,1.2673,1.2673,1.2674,0,1.1789,1.187,1.1886,1.1981,1.2006,1.2001,1.2084,1.2093,1.2153,1.2175,1.2185,1.2278,1.2315,1.2396,1.2454,1.2495,1.2492,1.2521,1.2471,1.2481,1.2447,1.2449,1.2319,1.2308,1.2461,1.246,1.2458,0,1.1715,1.1715,1.1812,1.1831,1.187,1.1899,1.1926,1.2018,1.2043,1.2117,1.2118,1.2162,1.2202,1.2257,1.233,1.2375,1.2406,1.2358,1.2413,1.2391,1.2407,1.2406,1.2408,1.2345,1.2343,1.2341,1.2339,0,1.1575,1.1617,1.1653,1.1705,1.1736,1.1781,1.183,1.1841,1.1945,1.1969,1.2009,1.204,1.2102,1.2145,1.2203,1.2247,1.2311,1.2322,1.2318,1.2293,1.2265,1.2281,1.2438,1.2324,1.2326,1.2327,1.2327,1.2328,1.1462,1.1468,1.1539,1.1578,1.1626,1.1671,1.1686,1.1749,1.1785,1.1843,1.1895,1.1931,1.1998,1.2083,1.2123,1.2153,1.2185,1.2178,1.2176,1.2173,1.2164,1.2261,1.2164,1.2165,1.2165,1.2166,1.2166,0,1.1328,1.138,1.1415,1.1483,1.1515,1.1575,1.1634,1.1656,1.1687,1.1745,1.1784,1.1832,1.1876,1.1954,1.2005,1.2015,1.2045,1.2025,1.2025,1.2035,1.2132,1.2131,1.1999,1.1999,1.1999,1.2,1.2,1.2,1.1262,1.1277,1.1327,1.1368,1.142,1.1457,1.1486,1.1529,1.1576,1.1626,1.1664,1.1716,1.1783,1.184,1.1884,1.1907,1.1922,1.1892,1.1923,1.2012,1.2027,1.2042,1.2042,1.1894,1.1894,1.1824,1.1824,1.1823]}]]